Content
SEND FEEDBACK

Daily
Averages
Monthly
Summary
Saudi Arabia

DHAHRAN, SAUDI ARABIA


Home > Middle East > Saudi Arabia
Elevation: 56 feet     Latitude: 26 16N     Longitude: 050 09E

WEATHER
 
SELECT A DAY
Number of Records: 181,660;   Date Range: 7/1/96 - 10/20/14
 
SHARE

PRINT THIS DATA

[ ← Previous Day ]
WEATHER ALMANAC - JANUARY 31, 2013
[ Next Day → ]
[ °C ]   °F
Weather ElementAverageHighLow
Temperature63 °F66.2 °F (9:00 am)55 °F (6:00 am)
Dewpoint57 °F64.4 °F (10:00 pm)51.8 °F (6:00 am)
Humidity80.1 %94 % (9:00 pm)60 % (6:00 pm)
Barometer29.85 in29.90 in (9:00 am)29.77 in (2:00 pm)
Wind Speed6.1 mph15 mph (10:00 pm)
Weather ElementAverage
Visibility5.9 mi
Wind DirectionENE (70 °)

Weather ElementTotal
Precipitation---
Heating Degree Days4.4 (Base 65)
Growing Degree Days10.6 (Base 50)
Averaged from 31 records on January 31, 2013
WEATHER CONDITIONS BREAKOUT
WIND DIRECTION BREAKOUT
WEATHER BY HOUR - JANUARY 31, 2013
[ °C ]   °F
Local TimeTemperatureDewpointHumidityBarometerVisibilityWind DirectionWind SpeedGust SpeedPrecipitationEventsConditions
12:00 AM59.0 °F53.6 °F82 %29.89 inVariable2.3 mphClear
1:00 AM59.0 °F53.6 °F82 %29.89 inCalmClear
2:00 AM59.0 °F53.6 °F82 %29.89 inCalmClear
3:00 AM57.0 °F54.0 °F84 %29.88 in6.0 miCalm
3:00 AM57.2 °F53.6 °F88 %29.86 inCalmClear
4:00 AM57.2 °F53.6 °F88 %29.86 inCalmClear
5:00 AM57.2 °F53.6 °F88 %29.86 inCalmClear
6:00 AM55.4 °F51.8 °F88 %29.86 inCalmClear
6:00 AM55.0 °F52.0 °F85 %29.87 in6.0 miCalm
7:00 AM57.2 °F53.6 °F88 %29.86 in4.3 miVariable3.5 mphMostly Cloudy
8:00 AM60.8 °F57.2 °F88 %29.89 in4.3 miVariable2.3 mphMostly Cloudy
9:00 AM65.0 °F57.0 °F69 %29.90 in6.0 miSE (140°)5.8 mphOvercast
9:00 AM66.2 °F57.2 °F73 %29.89 in6.2 miSE (140°)5.8 mphOvercast
10:00 AM66.2 °F57.2 °F73 %29.89 in6.2 miSE (140°)6.9 mphMostly Cloudy
11:00 AM66.2 °F57.2 °F73 %29.89 in6.2 miSSE (150°)6.9 mphOvercast
12:00 PM66.2 °F59.0 °F78 %29.86 in6.2 miSSE (160°)12.7 mphOvercast
12:00 PM66.0 °F59.0 °F72 %29.86 in6.0 miSSE (160°)12.7 mphOvercast
1:00 PM66.2 °F57.2 °F73 %29.80 in6.2 miSSE (160°)12.7 mphOvercast
2:00 PM66.2 °F57.2 °F73 %29.77 in6.2 miSSE (160°)11.5 mphOvercast
3:00 PM66.0 °F57.0 °F66 %29.79 in6.0 miSSE (150°)9.2 mphOvercast
3:00 PM66.2 °F57.2 °F73 %29.77 in6.2 miSSE (150°)9.2 mphOvercast
4:00 PM66.2 °F57.2 °F73 %29.77 in6.2 miSE (140°)8.1 mphOvercast
5:00 PM66.2 °F55.4 °F68 %29.80 in6.2 miVariable2.3 mphOvercast
6:00 PM66.2 °F55.4 °F68 %29.83 in6.2 miVariable2.3 mphOvercast
6:00 PM66.0 °F55.0 °F60 %29.83 in6.0 mi°2.3 mphOvercast
7:00 PM66.2 °F60.8 °F83 %29.83 in6.2 miNNE (30°)10.4 mphOvercast
8:00 PM66.2 °F62.6 °F88 %29.83 in6.2 miNE (40°)11.5 mphRainRain
9:00 PM64.0 °F63.0 °F94 %29.85 in6.0 miNE (40°)10.4 mphRainLight Rain
9:00 PM64.4 °F62.6 °F94 %29.83 in6.2 miNE (40°)10.4 mphRainRain
10:00 PM66.2 °F64.4 °F94 %29.80 in6.2 miEast (90°)15.0 mphRainRain
11:00 PM66.2 °F64.4 °F94 %29.83 in5.0 miENE (70°)13.8 mphRainRain
Hourly data recorded from OEDR, located miles away from Dhahran, Saudi Arabia







STORIES FROM OUR PARTNERS